DW6879 Weather Reports


time (UTC)temp
C
wind
direction
speed
KPH
gust
KPH
rain 1hr
cm
rain 24hr
cm
rain mn
cm
humidity
%
barometer
mb
20260503054531 11 334 0.0 0.0 0.00 0.00 0.00 64 1011.8
20260503053019 12 334 0.0 0.0 0.00 0.00 0.00 62 1011.8
20260503051515 12 334 0.0 0.0 0.00 0.00 0.00 60 1011.7
20260503050015 13 334 0.0 8.0 0.00 0.00 0.00 60 1011.6
20260503044530 14 31 0.0 0.0 0.00 0.00 0.00 53 1011.3
20260503043013 15 31 0.0 3.2 0.00 0.00 0.00 51 1011.2
20260503041513 15 63 0.0 4.8 0.00 0.00 0.00 51 1011.2
20260503040011 15 181 0.0 0.0 0.00 0.00 0.00 48 1010.9
20260503034511 16 160 0.0 0.0 0.00 0.00 0.00 49 1010.7
20260503033011 16 30 0.0 1.6 0.00 0.00 0.00 48 1010.5
20260503031511 17 30 0.0 1.6 0.00 0.00 0.00 46 1010.3
20260503030015 17 29 0.0 1.6 0.00 0.00 0.00 46 1010.1
20260503024509 18 184 0.0 6.4 0.00 0.00 0.00 43 1009.9
20260503023009 19 152 0.0 8.0 0.00 0.00 0.00 42 1010.0
20260503021509 21 167 0.0 8.0 0.00 0.00 0.00 34 1009.9
20260503020006 23 188 0.0 0.0 0.00 0.00 0.00 36 1009.8
20260503014507 26 188 0.0 0.0 0.00 0.00 0.00 26 1009.8
20260503013002 26 188 0.0 0.0 0.00 0.00 0.00 20 1009.7
20260503011501 25 188 0.0 0.0 0.00 0.00 0.00 27 1009.8
20260503010002 25 188 0.0 0.0 0.00 0.00 0.00 22 1009.9
20260503004600 25 136 0.0 0.0 0.00 0.00 0.00 21 1009.9
20260503003104 25 110 0.0 0.0 0.00 0.00 0.00 28 1009.9
20260503001559 25 187 0.0 8.0 0.00 0.00 0.00 22 1009.9
20260503000111 25 198 0.0 9.7 0.00 0.00 0.00 21 1009.8
20260502234559 25 191 0.0 9.7 0.00 0.00 0.00 24 1010.0
20260502233054 25 192 4.8 12.9 0.00 0.00 0.00 24 1010.1
20260502231614 25 163 0.0 11.3 0.00 0.00 0.00 24 1010.2
20260502230050 25 173 0.0 16.1 0.00 0.00 0.00 26 1010.3
20260502224555 25 187 6.4 16.1 0.00 0.00 0.00 25 1010.6
20260502223041 24 151 3.2 16.1 0.00 0.00 0.00 29 1010.7
20260502221538 24 165 4.8 16.1 0.00 0.00 0.00 27 1010.8
20260502220043 24 173 8.0 16.1 0.00 0.00 0.00 26 1011.1
20260502214533 24 115 14.5 20.9 0.00 0.00 0.00 28 1011.3
20260502213029 25 169 9.7 17.7 0.00 0.00 0.00 27 1011.4
20260502211527 24 140 1.6 19.3 0.00 0.00 0.00 27 1011.5
20260502210024 23 130 0.0 20.9 0.00 0.00 0.00 29 1011.8
20260502204525 23 127 8.0 19.3 0.00 0.00 0.00 31 1011.9
20260502203018 23 119 12.9 24.1 0.00 0.00 0.00 29 1012.1
20260502201516 23 105 12.9 24.1 0.00 0.00 0.00 30 1012.2
20260502200014 23 160 9.7 16.1 0.00 0.00 0.00 29 1012.3
20260502194511 23 112 9.7 22.5 0.00 0.00 0.00 31 1012.5
20260502193009 22 191 1.6 20.9 0.00 0.00 0.00 29 1012.7
20260502191507 22 199 3.2 19.3 0.00 0.00 0.00 29 1012.9
20260502190005 22 120 11.3 22.5 0.00 0.00 0.00 28 1013.0
20260502184502 22 144 1.6 17.7 0.00 0.00 0.00 29 1013.2
20260502183058 21 166 0.0 1.6 0.00 0.00 0.00 31 1013.3
20260502181556 20 121 0.0 1.6 0.00 0.00 0.00 52 1013.5
20260502163040 15 211 0.0 0.0 0.00 0.00 0.00 62 1014.4
20260502161551 13 222 0.0 3.2 0.00 0.00 0.00 61 1014.5
20260502151529 12 304 0.0 0.0 0.00 0.00 0.00 63 1015.0
20260502123008 7 296 0.0 3.2 0.00 0.00 0.00 73 1014.5
20260502121506 7 296 0.0 3.2 0.00 0.00 0.00 72 1014.5
20260502114600 8 296 0.0 0.0 0.00 0.00 0.00 66 1014.4
20260502113055 10 343 0.0 3.2 0.00 0.00 0.00 63 1014.3
20260502111554 10 343 0.0 1.6 0.00 0.00 0.00 61 1014.2
20260502110051 10 296 0.0 0.0 0.00 0.00 0.00 59 1014.3
20260502104548 11 348 0.0 4.8 0.00 0.00 0.00 58 1014.3
20260502103048 11 360 0.0 0.0 0.00 0.00 0.00 56 1014.1
20260502101553 11 117 1.6 9.7 0.00 0.00 0.00 56 1014.1
20260502091531 14 119 9.7 17.7 0.00 0.00 0.00 45 1014.3
20260502071511 15 111 16.1 22.5 0.00 0.00 0.00 43 1014.5